| time (UTC) | temp F | wind direction | speed knots | gust knots | rain 1hr in | rain 24hr in | rain mn in | humidity % | barometer mb |
| 20260506144523 | 57 | 51 | 0.0 | 5.2 | 0.00 | 0.00 | 0.00 | 21 | 1009.8 |
| 20260506143023 | 57 | 321 | 0.9 | 5.2 | 0.00 | 0.00 | 0.00 | 23 | 1009.9 |
| 20260506141521 | 57 | 336 | 0.9 | 7.0 | 0.00 | 0.00 | 0.00 | 22 | 1010.0 |
| 20260506140021 | 57 | 340 | 2.6 | 6.1 | 0.00 | 0.00 | 0.00 | 21 | 1010.2 |
| 20260506134518 | 55 | 96 | 0.9 | 6.1 | 0.00 | 0.00 | 0.00 | 22 | 1010.2 |
| 20260506133019 | 56 | 51 | 1.7 | 7.8 | 0.00 | 0.00 | 0.00 | 20 | 1010.3 |
| 20260506131524 | 56 | 110 | 2.6 | 7.0 | 0.00 | 0.00 | 0.00 | 24 | 1010.4 |
| 20260506130014 | 55 | 11 | 0.0 | 8.7 | 0.00 | 0.00 | 0.00 | 28 | 1010.6 |
| 20260506124513 | 56 | 336 | 3.5 | 7.0 | 0.00 | 0.00 | 0.00 | 25 | 1010.6 |
| 20260506123013 | 55 | 354 | 2.6 | 6.1 | 0.00 | 0.00 | 0.00 | 26 | 1010.6 |
| 20260506121513 | 54 | 73 | 1.7 | 11.3 | 0.00 | 0.00 | 0.00 | 27 | 1010.8 |
| 20260506120018 | 54 | 38 | 4.3 | 9.6 | 0.00 | 0.00 | 0.00 | 27 | 1010.8 |
| 20260506114519 | 55 | 128 | 0.9 | 7.8 | 0.00 | 0.00 | 0.00 | 26 | 1010.8 |
| 20260506113023 | 55 | 317 | 2.6 | 7.8 | 0.00 | 0.00 | 0.00 | 26 | 1010.9 |
| 20260506111512 | 55 | 337 | 0.9 | 7.8 | 0.00 | 0.00 | 0.00 | 28 | 1010.9 |
| 20260506110011 | 53 | 359 | 0.9 | 11.3 | 0.00 | 0.00 | 0.00 | 29 | 1011.0 |
| 20260506104507 | 53 | 14 | 1.7 | 9.6 | 0.00 | 0.00 | 0.00 | 30 | 1011.1 |
| 20260506103011 | 53 | 83 | 1.7 | 8.7 | 0.00 | 0.00 | 0.00 | 31 | 1011.1 |
| 20260506101509 | 53 | 137 | 2.6 | 7.0 | 0.00 | 0.00 | 0.00 | 29 | 1011.3 |
| 20260506100009 | 54 | 122 | 0.9 | 7.8 | 0.00 | 0.00 | 0.00 | 30 | 1011.4 |
| 20260506094505 | 53 | 335 | 1.7 | 11.3 | 0.00 | 0.00 | 0.00 | 28 | 1011.3 |
| 20260506093002 | 53 | 104 | 1.7 | 6.1 | 0.00 | 0.00 | 0.00 | 27 | 1011.3 |
| 20260506091500 | 54 | 191 | 0.9 | 4.3 | 0.00 | 0.00 | 0.00 | 24 | 1011.4 |
| 20260506090104 | 53 | 195 | 0.9 | 6.1 | 0.00 | 0.00 | 0.00 | 26 | 1011.5 |
| 20260506084606 | 52 | 145 | 0.0 | 5.2 | 0.00 | 0.00 | 0.00 | 29 | 1011.6 |
| 20260506083057 | 52 | 318 | 5.2 | 7.8 | 0.00 | 0.00 | 0.00 | 26 | 1011.6 |
| 20260506081554 | 53 | 316 | 0.0 | 4.3 | 0.00 | 0.00 | 0.00 | 29 | 1011.6 |
| 20260506080104 | 52 | 330 | 2.6 | 6.1 | 0.00 | 0.00 | 0.00 | 27 | 1011.6 |
| 20260506073048 | 52 | 309 | 0.0 | 7.0 | 0.00 | 0.00 | 0.00 | 33 | 1011.6 |
| 20260506071545 | 51 | 293 | 0.0 | 4.3 | 0.00 | 0.00 | 0.00 | 38 | 1011.5 |
| 20260506061533 | 46 | 325 | 1.7 | 5.2 | 0.00 | 0.00 | 0.00 | 50 | 1011.7 |
| 20260506044511 | 37 | 309 | 0.0 | 0.0 | 0.00 | 0.00 | 0.00 | 81 | 1011.5 |
| 20260506043011 | 35 | 309 | 0.0 | 0.0 | 0.00 | 0.00 | 0.00 | 81 | 1011.4 |
| 20260506041507 | 34 | 309 | 0.0 | 0.0 | 0.00 | 0.00 | 0.00 | 82 | 1011.3 |
| 20260506040003 | 31 | 309 | 0.0 | 0.0 | 0.00 | 0.00 | 0.00 | 88 | 1011.3 |
| 20260506034615 | 29 | 309 | 0.0 | 0.0 | 0.00 | 0.00 | 0.00 | 91 | 1011.2 |
| 20260506033058 | 26 | 309 | 0.0 | 0.0 | 0.00 | 0.00 | 0.00 | 92 | 1011.1 |
| 20260506031607 | 25 | 309 | 0.0 | 0.0 | 0.00 | 0.00 | 0.00 | 92 | 1011.1 |
| 20260506030055 | 25 | 49 | 0.0 | 0.0 | 0.00 | 0.00 | 0.00 | 91 | 1011.0 |
| 20260506024613 | 25 | 49 | 0.0 | 0.0 | 0.00 | 0.00 | 0.00 | 91 | 1011.0 |
| 20260506023052 | 26 | 49 | 0.0 | 0.0 | 0.00 | 0.00 | 0.00 | 91 | 1010.9 |
| 20260506021553 | 26 | 49 | 0.0 | 0.0 | 0.00 | 0.00 | 0.00 | 90 | 1010.9 |
| 20260506020048 | 26 | 49 | 0.0 | 0.0 | 0.00 | 0.00 | 0.00 | 90 | 1010.8 |
| 20260506014550 | 26 | 49 | 0.0 | 0.0 | 0.00 | 0.00 | 0.00 | 90 | 1010.8 |
| 20260506013100 | 26 | 49 | 0.0 | 0.0 | 0.00 | 0.00 | 0.00 | 89 | 1010.7 |
| 20260506011544 | 26 | 49 | 0.0 | 0.9 | 0.00 | 0.00 | 0.00 | 89 | 1010.7 |
| 20260506010042 | 26 | 49 | 0.0 | 0.0 | 0.00 | 0.00 | 0.00 | 88 | 1010.6 |
| 20260506004539 | 27 | 49 | 0.0 | 0.0 | 0.00 | 0.00 | 0.00 | 88 | 1010.5 |
| 20260506003039 | 27 | 49 | 0.0 | 0.0 | 0.00 | 0.00 | 0.00 | 86 | 1010.4 |
| 20260506001538 | 27 | 49 | 0.0 | 0.0 | 0.00 | 0.00 | 0.00 | 86 | 1010.3 |
| 20260506000033 | 28 | 49 | 0.0 | 0.0 | 0.00 | 0.00 | 0.00 | 85 | 1010.2 |
| 20260505234536 | 28 | 49 | 0.0 | 0.0 | 0.00 | 0.00 | 0.00 | 85 | 1010.2 |
| 20260505233029 | 28 | 49 | 0.0 | 0.0 | 0.00 | 0.00 | 0.00 | 84 | 1010.3 |
| 20260505231530 | 28 | 49 | 0.0 | 0.0 | 0.00 | 0.00 | 0.00 | 84 | 1010.3 |
| 20260505230045 | 28 | 49 | 0.0 | 0.0 | 0.00 | 0.00 | 0.00 | 82 | 1010.2 |
| 20260505224524 | 29 | 49 | 0.0 | 0.0 | 0.00 | 0.00 | 0.00 | 82 | 1010.1 |
| 20260505223027 | 29 | 49 | 0.0 | 0.0 | 0.00 | 0.00 | 0.00 | 82 | 1010.1 |
| 20260505221520 | 29 | 49 | 0.0 | 0.0 | 0.00 | 0.00 | 0.00 | 79 | 1010.1 |
| 20260505220016 | 30 | 49 | 0.0 | 0.0 | 0.00 | 0.00 | 0.00 | 78 | 1009.9 |
| 20260505214515 | 31 | 49 | 0.0 | 0.9 | 0.00 | 0.00 | 0.00 | 76 | 1009.8 |
| 20260505213012 | 31 | 49 | 0.0 | 0.0 | 0.00 | 0.00 | 0.00 | 74 | 1009.8 |
| 20260505211509 | 32 | 49 | 0.0 | 0.0 | 0.00 | 0.00 | 0.00 | 72 | 1009.6 |
| 20260505210006 | 33 | 49 | 0.0 | 0.9 | 0.00 | 0.00 | 0.00 | 69 | 1009.5 |
| 20260505204503 | 34 | 49 | 0.0 | 0.9 | 0.00 | 0.00 | 0.00 | 69 | 1009.4 |
| 20260505203002 | 34 | 49 | 0.0 | 0.0 | 0.00 | 0.00 | 0.00 | 67 | 1009.1 |
| 20260505201600 | 34 | 49 | 0.0 | 0.9 | 0.00 | 0.00 | 0.00 | 66 | 1009.0 |
| 20260505200059 | 35 | 48 | 0.0 | 0.0 | 0.00 | 0.00 | 0.00 | 64 | 1009.0 |
| 20260505194604 | 37 | 48 | 0.0 | 1.7 | 0.00 | 0.00 | 0.00 | 60 | 1008.9 |
| 20260505193047 | 38 | 84 | 0.0 | 0.9 | 0.00 | 0.00 | 0.00 | 59 | 1008.8 |
| 20260505191544 | 40 | 101 | 0.0 | 0.9 | 0.00 | 0.00 | 0.00 | 52 | 1008.7 |
| 20260505190045 | 41 | 133 | 0.0 | 0.9 | 0.00 | 0.00 | 0.00 | 49 | 1008.6 |
| 20260505184540 | 44 | 133 | 0.0 | 0.9 | 0.00 | 0.00 | 0.00 | 42 | 1008.5 |
| 20260505183038 | 46 | 133 | 0.0 | 0.9 | 0.00 | 0.00 | 0.00 | 37 | 1008.3 |
| 20260505181537 | 47 | 133 | 0.0 | 1.7 | 0.00 | 0.00 | 0.00 | 35 | 1008.1 |
| 20260505180136 | 47 | 78 | 0.9 | 3.5 | 0.00 | 0.00 | 0.00 | 34 | 1008.0 |
| 20260505174534 | 48 | 124 | 2.6 | 5.2 | 0.00 | 0.00 | 0.00 | 32 | 1007.9 |
| 20260505173042 | 48 | 118 | 1.7 | 7.8 | 0.00 | 0.00 | 0.00 | 32 | 1007.9 |
| 20260505171534 | 48 | 142 | 1.7 | 7.8 | 0.00 | 0.00 | 0.00 | 31 | 1007.8 |
| 20260505170037 | 49 | 166 | 0.9 | 7.0 | 0.00 | 0.00 | 0.00 | 32 | 1007.7 |
| 20260505164547 | 49 | 14 | 2.6 | 8.7 | 0.00 | 0.00 | 0.00 | 31 | 1007.7 |
| 20260505163031 | 50 | 82 | 1.7 | 10.4 | 0.00 | 0.00 | 0.00 | 30 | 1007.7 |
| 20260505161529 | 50 | 25 | 4.3 | 11.3 | 0.00 | 0.00 | 0.00 | 30 | 1007.7 |
| 20260505153035 | 50 | 153 | 5.2 | 8.7 | 0.00 | 0.00 | 0.00 | 30 | 1007.6 |
| 20260505151525 | 50 | 148 | 2.6 | 12.2 | 0.00 | 0.00 | 0.00 | 31 | 1007.6 |